BEIDOU-3 M28 (C50)

Last updated on Sun Oct 19 2025 00:03:25 GMT+0000 (Coordinated Universal Time)

1 58654U 23207A 25290.59449756 -.00000017 00000+0 00000+0 0 9996 2 58654 55.5358 70.5011 0000369 218.4614 141.5284 1.86229797 12323
UTC large
Height (km)
Speed (km/s)
/
Latitude / Longitude
Inclination (degrees)
Orbital Period (minutes)
Azimuth
Elevation
Range (km)
Doppler Factor

Next 0 passes for location: London (51.5072 / 0.1276)

Sorry there are no passes over London.